Weather History for KRNO - February, 2013

Change the Weather History Date:

Monday, February 18, 2013

  Actual Average Record
Temperature  
Mean Temperature 40 °F 41 °F  
Max Temperature 55 °F 52 °F 70 °F (2015)
Min Temperature 24 °F 29 °F 1 °F (1917)
Degree Days  
Heating Degree Days 25 24  
Month to date heating degree days 471 470  
Since 1 July heating degree days 3218 3407  
Cooling Degree Days 0 0  
Month to date cooling degree days 0 0  
Year to date cooling degree days 0 0  
Moisture  
Dew Point 18 °F    
Average Humidity 47    
Maximum Humidity 74    
Minimum Humidity 20    
Precipitation  
Precipitation 0.00 in 0.04 in 0.83 in (1986)
Month to date precipitation T 0.62  
Year to date precipitation 0.12 1.65  
Snow  
Snow 0.00 in 0.20 in 6.90 in (2011)
Month to date snowfall 0.0 3.1  
Since 1 July snowfall 9.3 17.1  
Snow Depth 0.00 in    
Sea Level Pressure  
Sea Level Pressure 29.90 in    
Wind  
Wind Speed 3 mph (SW)    
Max Wind Speed 22 mph    
Max Gust Speed 25 mph    
Visibility 10 miles    
Events      
T = Trace of Precipitation, MM = Missing Value Source: NWS Daily Summary

Daily Weather History Graph

Daily Weather History Graph

Search for Another Location

Airport or City:

Trip Planner

Search our weather history database for the weather conditions in past years. The results will help you decide how hot, cold, wet, or windy it might be!

Date:

Astronomy

Feb. 18, 2013 Rise Set
Actual Time 6:46 AM PST 5:39 PM PST
Civil Twilight 6:19 AM PST 6:06 PM PST
Nautical Twilight 5:48 AM PST 6:38 PM PST
Astronomical Twilight 5:17 AM PST 7:09 PM PST
Moon 11:29 AM PST (2/18) 1:30 AM PST (2/18)
Length of Visible Light 11h 47m
Length of Day
10h 52m
First Quarter, 59% of the Moon is Illuminated
Feb 18
First Quarter
Feb 25
Full
Mar 4
Last Quarter
Mar 11
New
Mar 19
First Quarter

Hourly Weather History & Observations

Time (PST) Temp. Windchill Dew Point Humidity Pressure Visibility Wind Dir Wind Speed Gust Speed Precip Events Conditions
12:55 AM 28.9 °F - 17.1 °F 61% 30.04 in 10.0 mi Calm Calm - N/A   Clear
1:55 AM 30.0 °F 26.5 °F 17.1 °F 59% 30.03 in 10.0 mi WNW 3.5 mph - N/A   Clear
2:55 AM 28.9 °F - 17.1 °F 61% 30.02 in 10.0 mi Calm Calm - N/A   Clear
3:55 AM 27.0 °F - 17.1 °F 66% 30.01 in 10.0 mi Calm Calm - N/A   Clear
4:55 AM 26.1 °F - 17.1 °F 69% 30.02 in 10.0 mi Calm Calm - N/A   Clear
5:55 AM 25.0 °F - 17.1 °F 72% 30.02 in 10.0 mi Calm Calm - N/A   Scattered Clouds
6:55 AM 25.0 °F - 17.1 °F 72% 30.02 in 10.0 mi Calm Calm - N/A   Scattered Clouds
7:55 AM 28.0 °F - 18.0 °F 66% 30.02 in 10.0 mi Calm Calm - N/A   Mostly Cloudy
8:55 AM 30.9 °F - 19.0 °F 61% 30.01 in 10.0 mi Calm Calm - N/A   Mostly Cloudy
9:55 AM 35.1 °F - 19.0 °F 52% 29.99 in 10.0 mi Calm Calm - N/A   Mostly Cloudy
10:55 AM 39.0 °F - 19.0 °F 45% 29.96 in 10.0 mi Calm Calm - N/A   Mostly Cloudy
11:55 AM 41.0 °F - 18.0 °F 40% 29.94 in 10.0 mi Calm Calm - N/A   Mostly Cloudy
12:55 PM 44.1 °F - 18.0 °F 35% 29.89 in 10.0 mi Calm Calm - N/A   Mostly Cloudy
1:55 PM 48.0 °F - 19.0 °F 32% 29.85 in 10.0 mi Calm Calm - N/A   Mostly Cloudy
2:55 PM 52.0 °F - 17.1 °F 25% 29.81 in 10.0 mi Calm Calm - N/A   Mostly Cloudy
3:55 PM 53.1 °F - 14.0 °F 21% 29.80 in 10.0 mi North 3.5 mph - N/A   Mostly Cloudy
4:55 PM 55.0 °F - 17.1 °F 23% 29.77 in 10.0 mi South 12.7 mph 19.6 mph N/A   Mostly Cloudy
5:55 PM 50.0 °F - 18.0 °F 28% 29.78 in 10.0 mi SSW 3.5 mph - N/A   Mostly Cloudy
6:55 PM 46.9 °F - 19.0 °F 33% 29.79 in 10.0 mi SSW 6.9 mph - N/A   Mostly Cloudy
7:55 PM 46.0 °F 43.1 °F 12.9 °F 26% 29.78 in 10.0 mi Variable 5.8 mph - N/A   Mostly Cloudy
8:55 PM 44.1 °F 38.6 °F 21.0 °F 40% 29.77 in 10.0 mi West 10.4 mph - N/A   Mostly Cloudy
9:55 PM 39.9 °F 37.8 °F 21.0 °F 47% 29.78 in 10.0 mi South 3.5 mph - N/A   Mostly Cloudy
10:55 PM 42.1 °F - 18.0 °F 38% 29.74 in 10.0 mi Calm Calm - N/A   Mostly Cloudy
11:55 PM 42.1 °F 33.9 °F 12.9 °F 31% 29.73 in 10.0 mi South 17.3 mph - N/A   Scattered Clouds